User: anonymous   Login
Location: Caltech
(34.1382°N, 118.1253°W)
Time: 16:53:43
(UTC-07:00)
Language:

TMSAT-1 - Orbit

View from above orbital plane
View from above orbital plane
View from above satellite
View from above satellite

Ground track
Ground track

The orbit data is extracted from the following two-line orbital elements,

1 25396U 98043C   15089.53014343  .00000240  00000-0  12226-3 0  9997
2 25396 098.4817 045.6560 0003049 145.1162 333.2615 14.24295116868916
Epoch (UTC): 30 March 2015 12:43:24
Eccentricity: 0.0003049
inclination: 98.4817°
perigee height: 808 km
apogee height: 813 km
right ascension of ascending node: 45.6560°
argument of perigee: 145.1162°
revolutions per day: 14.24295116
mean anomaly at epoch: 333.2615°
orbit number at epoch: 86891

The dashed part of the orbit path shows where the satellite is in the earth's shadow,  

DLR